Waarnemingen

Advertentie
Mijn weer
Karesuando, Zweden (2080): temperatuur & dauwpunt: 18.10.2018 00:00:00 - 24.10.2018 00:00:00 (CEST)Karesuando, Zweden (2080): windsnelheid & windstoten: 18.10.2018 00:00:00 - 24.10.2018 00:00:00 (CEST)Karesuando, Zweden (2080): windrichting: 18.10.2018 00:00:00 - 24.10.2018 00:00:00 (CEST)Karesuando, Zweden (2080): luchtdruk: 18.10.2018 00:00:00 - 24.10.2018 00:00:00 (CEST)Karesuando, Zweden (2080): zicht: 18.10.2018 00:00:00 - 24.10.2018 00:00:00 (CEST)Karesuando, Zweden (2080): neerslag: 18.10.2018 00:00:00 - 24.10.2018 00:00:00 (CEST)
Datum & Tijd tt [°C] td [°C] ff [km/u] ff [kn] fx [km/u] fx [kn] dd ppp [hPa] vv [km] rr [mm]
24.10.2018 00:00:00 -9,1 -9,6 6 4 8 4 ZW 993,6 33 0,0
23.10.2018 23:00:00 -8,8 -9,6 4 2 8 4 WZW 993,1 30 0,0
23.10.2018 22:00:00 -7,9 -8,4 2 1 5 3 NNW 992,6 50 0,0
23.10.2018 21:00:00 -8,3 -9,1 5 3 7 4 WZW 991,9 50 0,0
23.10.2018 20:00:00 -6,6 -7,0 4 2 6 4 W 991,2 48 0,0
23.10.2018 19:00:00 -4,6 -4,9 5 3 8 4 ZW 990,5 50 0,0
23.10.2018 18:00:00 -4,1 -5,1 5 3 9 5 ZW 990,2 50 0,0
23.10.2018 17:00:00 -2,0 -4,3 6 3 8 5 Z 989,5 50 0,0
23.10.2018 16:00:00 -0,3 -4,0 6 4 8 5 ZZW 989,0 50 0,0
23.10.2018 15:00:00 2,0 -3,1 3 1 6 3 ZW 988,4 50 0,0
23.10.2018 14:00:00 2,4 -2,9 5 3 13 7 ZW 988,2 50 0,0
23.10.2018 13:00:00 2,3 -3,4 8 5 13 7 WZW 988,1 50 0,0
23.10.2018 12:00:00 1,5 -2,8 6 4 11 6 ZW 988,1 46 0,0
23.10.2018 11:00:00 -0,8 -2,7 6 4 11 6 ZZW 988,1 50 0,0
23.10.2018 10:00:00 -1,5 -2,8 6 3 10 5 ZZW 987,9 50 0,0
23.10.2018 09:00:00 -1,8 -2,9 8 5 11 6 ZZW 987,9 50 0,0
23.10.2018 08:00:00 -1,5 -2,8 6 3 10 5 ZW 987,6 50 0,0
23.10.2018 07:00:00 -1,2 -2,6 5 3 14 8 ZW 987,6 50 0,0
23.10.2018 06:00:00 -0,4 -2,3 11 6 18 10 ZW 987,7 50 0,0
23.10.2018 05:00:00 0,1 -2,1 9 5 13 7 WZW 987,9 50 0,0
23.10.2018 04:00:00 -0,2 -2,1 8 5 14 8 W 988,0 50 0,0
23.10.2018 03:00:00 -2,3 -3,3 6 4 10 5 ZW 988,3 50 0,0
23.10.2018 02:00:00 -2,5 -3,6 3 2 9 5 ZW 988,5 50 0,0
23.10.2018 01:00:00 -2,3 -3,7 8 4 12 6 Z 988,7 50 0,0
23.10.2018 00:00:00 -0,7 -3,1 11 6 18 10 W 988,8 50 0,0
22.10.2018 23:00:00 -0,5 -2,9 9 5 18 10 ZW 988,8 50 0,0
22.10.2018 22:00:00 -0,4 -3,1 10 6 17 9 ZW 988,8 50 0,0
22.10.2018 21:00:00 0,2 -3,0 9 5 20 11 ZW 988,9 50 0,0
22.10.2018 20:00:00 0,1 -3,1 14 8 25 13 ZW 988,8 50 0,0
22.10.2018 19:00:00 -1,3 -3,8 9 5 16 9 ZZW 989,0 50 0,0
22.10.2018 18:00:00 -0,3 -3,5 8 4 13 7 ZZW 989,0 50 0,0
22.10.2018 17:00:00 -0,5 -3,4 3 2 14 7 NO 989,2 50 0,0
22.10.2018 16:00:00 0,8 -2,9 9 5 17 9 ZW 988,8 50 0,0
22.10.2018 15:00:00 2,3 -2,4 7 4 19 10 ZZW 988,8 50 0,0
22.10.2018 14:00:00 2,1 -2,4 6 3 23 12 ZZW 989,0 50 0,0
22.10.2018 13:00:00 2,3 -2,4 11 6 26 14 ZW 988,9 50 0,0
22.10.2018 12:00:00 0,9 -2,5 14 8 32 18 ZW 988,9 50 0,0
22.10.2018 11:00:00 0,8 -3,1 15 8 28 15 ZW 988,9 50 0,0
22.10.2018 10:00:00 -0,3 -3,7 14 7 26 14 ZW 989,0 50 0,0
22.10.2018 09:00:00 -1,0 -3,8 16 9 31 17 ZW 989,1 50 0,0
22.10.2018 08:00:00 -1,8 -4,1 11 6 20 11 ZZW 989,7 50 0,0
22.10.2018 07:00:00 -2,2 -4,1 3 1 19 10 ZZO 990,1 48 0,0
22.10.2018 06:00:00 -1,1 -3,6 15 8 24 13 ZZW 990,0 50 0,0
22.10.2018 05:00:00 -1,5 -3,7 9 5 18 10 ZZW 990,7 50 0,0
22.10.2018 04:00:00 -0,8 -3,8 11 6 21 11 Z 990,7 50 0,0
22.10.2018 03:00:00 -0,5 -3,7 7 4 18 10 Z 991,0 48 0,0
22.10.2018 02:00:00 0,0 -3,2 6 4 16 8 OZO 991,1 50 0,0
22.10.2018 01:00:00 0,7 -3,4 6 3 16 9 ZO 991,5 47 0,0
22.10.2018 00:00:00 1,3 -3,2 6 3 16 9 ZZW 991,7 48 0,0
21.10.2018 23:00:00 1,9 -3,0 7 4 42 23 ZZW 992,1 49 0,0
21.10.2018 22:00:00 2,3 -2,0 26 14 41 22 ZW 991,5 50 0,0
21.10.2018 21:00:00 2,4 -1,2 21 11 37 20 ZW 992,1 49 0,0
21.10.2018 20:00:00 2,7 -0,8 13 7 34 18 ZW 992,8 50 0,0
21.10.2018 19:00:00 3,3 -1,1 13 7 27 14 ZW 993,0 50 0,0
21.10.2018 18:00:00 3,4 -1,2 14 8 31 17 WZW 992,8 50 0,0
21.10.2018 17:00:00 4,5 -0,5 18 10 36 19 ZW 992,7 50 0,0
21.10.2018 16:00:00 4,8 1,1 14 8 32 17 ZZW 992,8 45 0,0
21.10.2018 15:00:00 5,6 1,9 14 8 29 16 Z 992,9 50 0,0
21.10.2018 14:00:00 5,7 2,3 12 7 32 18 Z 993,5 49 0,0
21.10.2018 13:00:00 5,5 2,3 14 8 32 17 Z 994,3 40 0,0
21.10.2018 12:00:00 5,1 2,5 11 6 28 15 Z 995,1 41 0,0
21.10.2018 11:00:00 3,9 2,3 13 7 25 13 ZZW 996,1 50 0,0
21.10.2018 10:00:00 3,4 2,2 13 7 30 16 ZZW 996,9 50 0,0
21.10.2018 09:00:00 2,5 1,9 6 4 24 13 ZZW 997,4 50 0,0
21.10.2018 08:00:00 2,1 1,7 10 6 37 20 ZZW 998,0 50 0,0
21.10.2018 07:00:00 1,8 1,2 18 10 45 24 Z 998,2 50 0,0
21.10.2018 06:00:00 - - - - 42 23 - - - -
21.10.2018 05:00:00 - - - - 37 20 - - - -
21.10.2018 04:00:00 0,0 0,0 12 7 29 16 Z 1003,6 50 0,0
21.10.2018 03:00:00 -1,8 -1,8 9 5 18 10 O 1005,7 50 0,0
21.10.2018 02:00:00 -2,3 -2,3 9 5 17 9 O 1007,6 12 0,0
21.10.2018 01:00:00 -2,8 -2,8 9 5 18 10 O 1009,3 0,4 0,0
21.10.2018 00:00:00 -3,1 -3,1 11 6 20 11 O 1009,7 0,6 0,0
20.10.2018 23:00:00 -3,2 -3,2 10 6 18 10 O 1011,3 0,7 0,0
20.10.2018 22:00:00 -3,2 -3,2 8 4 14 7 O 1012,4 50 0,0
20.10.2018 21:00:00 -2,9 -2,9 10 5 13 7 O 1012,6 2,8 0,0
20.10.2018 20:00:00 -2,1 -2,1 5 3 9 5 O 1013,0 50 0,0
20.10.2018 19:00:00 -1,9 -1,9 3 1 10 6 NO 1013,5 2,0 0,0
20.10.2018 18:00:00 -0,7 -0,7 5 3 10 5 OZO 1013,1 46 0,0
20.10.2018 17:00:00 -0,1 -0,1 8 4 10 5 OZO 1013,7 11 0,0
20.10.2018 16:00:00 0,1 0,1 5 3 11 6 O 1014,2 4,8 0,0
20.10.2018 15:00:00 -0,2 -0,2 8 4 12 7 O 1014,2 0,6 0,0
20.10.2018 14:00:00 -0,2 -0,2 7 4 11 6 O 1014,4 1,2 0,0
20.10.2018 13:00:00 0,1 0,1 7 4 10 5 O 1014,6 50 0,0
20.10.2018 12:00:00 -0,7 -0,7 6 3 10 5 O 1014,9 50 0,0
20.10.2018 11:00:00 -1,7 -1,7 6 3 10 5 O 1015,2 45 0,0
20.10.2018 10:00:00 -2,1 -2,1 5 3 9 5 O 1015,1 43 0,0
20.10.2018 09:00:00 -2,9 -2,9 7 4 10 5 O 1015,1 14 0,1
20.10.2018 08:00:00 -3,5 -3,5 7 4 11 6 O 1015,3 50 0,0
20.10.2018 07:00:00 -3,8 -3,8 7 4 11 6 O 1015,5 8 0,0
20.10.2018 06:00:00 -4,0 -4,0 6 4 8 5 O 1015,5 3,9 0,0
20.10.2018 05:00:00 -4,5 -4,6 3 2 10 5 ZZO 1015,7 50 0,0
20.10.2018 04:00:00 -4,2 -4,2 4 2 6 3 ONO 1015,5 50 0,0
20.10.2018 03:00:00 -3,2 -3,2 7 4 9 5 O 1015,5 50 0,0
20.10.2018 02:00:00 -3,2 -3,2 2 1 10 6 NNO 1015,8 50 0,0
20.10.2018 01:00:00 -3,3 -3,3 5 3 6 4 W 1015,8 48 0,0
20.10.2018 00:00:00 -2,1 -2,1 2 1 12 7 WZW 1015,8 50 0,0
19.10.2018 23:00:00 -2,1 -2,1 7 4 11 6 ZW 1015,8 50 0,0
19.10.2018 22:00:00 -1,8 -2,1 3 2 15 8 NW 1015,2 50 0,0
19.10.2018 21:00:00 -1,3 -1,4 6 3 13 7 ZW 1014,7 50 0,0
19.10.2018 20:00:00 - - - - - - - - - -
19.10.2018 19:00:00 0,2 -0,7 5 3 14 7 W 1013,9 33 0,0
19.10.2018 18:00:00 1,7 0,2 11 6 16 9 W 1013,4 50 0,0
19.10.2018 17:00:00 2,6 0,3 11 6 20 11 W 1013,0 50 0,0
19.10.2018 16:00:00 4,2 0,7 13 7 22 12 W 1012,1 45 0,0
19.10.2018 15:00:00 5,9 1,0 13 7 19 11 W 1011,2 47 0,0
19.10.2018 14:00:00 6,3 1,8 9 5 27 14 WNW 1010,6 45 0,0
19.10.2018 13:00:00 6,2 1,9 13 7 29 16 WNW 1009,9 38 0,0
19.10.2018 12:00:00 5,9 2,4 16 9 29 15 NW 1008,9 37 0,0
19.10.2018 11:00:00 5,2 2,0 14 8 23 13 WNW 1008,3 34 0,0
19.10.2018 10:00:00 4,0 2,5 9 5 13 7 WNW 1007,6 29 0,0
19.10.2018 09:00:00 2,8 2,4 7 4 11 6 ZW 1006,9 48 0,0
19.10.2018 08:00:00 2,2 1,9 5 3 14 8 W 1005,9 36 0,0
19.10.2018 07:00:00 3,0 1,7 9 5 18 10 WNW 1004,9 27 0,0
19.10.2018 06:00:00 2,4 1,4 6 4 20 11 WNW 1004,1 27 0,0
19.10.2018 05:00:00 1,5 1,1 7 4 12 7 WNW 1002,9 24 0,0
19.10.2018 04:00:00 1,4 0,8 7 4 11 6 W 1001,8 18 0,0
19.10.2018 03:00:00 2,6 1,4 8 4 16 9 WZW 1000,9 41 0,0
19.10.2018 02:00:00 2,1 1,2 8 5 13 7 ZW 1000,4 31 0,0
19.10.2018 01:00:00 2,3 1,1 8 4 16 9 ZW 1000,0 27 0,0
19.10.2018 00:00:00 2,0 1,4 8 5 21 11 WZW 999,7 21 0,0
18.10.2018 23:00:00 1,3 1,3 6 4 13 7 ZW 999,4 18 0,0
18.10.2018 22:00:00 0,8 0,7 6 4 13 7 WZW 999,5 17 0,0
18.10.2018 21:00:00 2,1 1,8 8 4 22 12 ZW 999,5 14 0,3
18.10.2018 20:00:00 3,0 0,4 13 7 26 14 ZW 999,8 23 0,0
18.10.2018 19:00:00 1,8 -0,3 11 6 19 10 ZZW 999,9 22 0,0
18.10.2018 18:00:00 1,9 -0,4 6 3 16 9 Z 1000,5 28 0,0
18.10.2018 17:00:00 2,4 -0,5 11 6 21 11 Z 1000,7 25 0,0
18.10.2018 16:00:00 4,2 -0,4 11 6 19 10 ZW 1000,7 32 0,0
18.10.2018 15:00:00 5,4 -0,2 9 5 18 10 ZW 1000,9 17 0,0
18.10.2018 14:00:00 6,0 -0,3 10 6 24 13 ZW 1001,2 16 0,0
18.10.2018 13:00:00 5,7 -0,8 16 9 25 13 WZW 1001,6 17 0,0
18.10.2018 12:00:00 4,1 -0,1 8 5 14 8 WZW 1002,4 17 0,0
18.10.2018 11:00:00 2,6 0,7 7 4 12 6 ZW 1002,9 12 0,0
18.10.2018 10:00:00 0,8 0,8 7 4 13 7 ZW 1003,2 23 0,0
18.10.2018 09:00:00 -1,2 -1,2 4 2 14 7 ZW 1003,4 50 0,0
18.10.2018 08:00:00 -1,8 -1,8 5 3 11 6 Z 1003,2 42 0,0
18.10.2018 07:00:00 -1,2 -1,2 4 2 8 4 W 1003,0 0,5 0,0
18.10.2018 06:00:00 -0,7 -0,7 4 2 12 7 W 1003,3 9 0,0
18.10.2018 05:00:00 -0,4 -0,4 3 1 11 6 Z 1003,7 0,4 0,0
18.10.2018 04:00:00 -0,2 -0,2 3 2 12 6 ZZW 1003,8 0,7 0,0
18.10.2018 03:00:00 0,2 0,2 4 2 14 8 ZZW 1004,0 0,4 0,0
18.10.2018 02:00:00 0,8 0,8 8 4 13 7 ZW 1004,2 4,9 0,0
18.10.2018 01:00:00 1,2 1,2 3 2 11 6 Z 1004,4 50 0,0
18.10.2018 00:00:00 1,5 1,5 9 5 18 10 ZW 1004,6 50 0,0

tt = temperatuur
td = dauwpunt
ff = windsnelheid
fx = windstoten
dd = windrichting
ppp = luchtdruk
vv = zicht
rr = neerslag

Weerstations in de omgeving